This is the latest recevied weather packets stored in our database for station/object CA2RRL-10. If no packets are shown the sender has not sent any weather packets the latest 10 day(s).
| Time | Temp. | Humidity | Pressure | Rain* | Wind** | Luminosity | Snow |
|---|---|---|---|---|---|---|---|
| 1777778305 | 14.44° C | 37% | 1031.1 hPa | - | - | - | - |
| 1777777405 | 15° C | 37% | 1031.1 hPa | - | - | - | - |
| 1777776505 | 15° C | 37% | 1031 hPa | - | - | - | - |
| 1777775605 | 15.56° C | 36% | 1030.9 hPa | - | - | - | - |
| 1777774705 | 15.56° C | 36% | 1030.9 hPa | - | - | - | - |
| 1777773804 | 16.67° C | 34% | 1030.7 hPa | - | - | - | - |
| 1777772904 | 16.67° C | 34% | 1030.9 hPa | - | - | - | - |
| 1777772004 | 17.22° C | 33% | 1031 hPa | - | - | - | - |
| 1777771104 | 17.78° C | 32% | 1031.2 hPa | - | - | - | - |
| 1777770204 | 17.78° C | 32% | 1031 hPa | - | - | - | - |
| 1777769304 | 18.33° C | 31% | 1031.1 hPa | - | - | - | - |
| 1777768404 | 18.89° C | 30% | 1031.1 hPa | - | - | - | - |
| 1777767504 | 19.44° C | 29% | 1031 hPa | - | - | - | - |
| 1777766604 | 20° C | 28% | 1030.9 hPa | - | - | - | - |
| 1777765704 | 20.56° C | 27% | 1030.6 hPa | - | - | - | - |
| 1777764803 | 21.11° C | 26% | 1030.5 hPa | - | - | - | - |
| 1777763903 | 21.67° C | 25% | 1030.3 hPa | - | - | - | - |
| 1777763003 | 22.22° C | 23% | 1030.1 hPa | - | - | - | - |
| 1777762103 | 22.78° C | 22% | 1030.1 hPa | - | - | - | - |
| 1777761203 | 23.33° C | 21% | 1030 hPa | - | - | - | - |
| 1777760303 | 23.89° C | 21% | 1029.6 hPa | - | - | - | - |
| 1777759403 | 23.89° C | 21% | 1029.5 hPa | - | - | - | - |
| 1777758503 | 24.44° C | 20% | 1029.3 hPa | - | - | - | - |
| 1777757603 | 25.56° C | 20% | 1029.2 hPa | - | - | - | - |
| 1777756703 | 26.67° C | 20% | 1029 hPa | - | - | - | - |
* Rain since midnight (hover to see other rain measurements)
** Current wind speed in m/s (hover to see current wind gust speed)